Weather Roundup
Issued by NWS Chicago, IL

Home | Current Version | Previous Version | Graphics & Text | Print | Product List | Glossary On
Versions: 1 2 3 4 5 6 7 8 9 10 11 12 13 14 15 16 17 18 19 20 21 22 23 24 25 26 27 28 29 30 31 32 33 34 35 36 37 38 39 40 41 42 43 44 45 46 47 48 49 50
598
NZUS59 KLOT 200709
HRRLOT

CHICAGO AREA WEATHER ROUNDUP
NATIONAL WEATHER SERVICE CHICAGO/ROMEOVILLE IL
200 AM CDT FRI OCT 20 2017

NOTE: "FAIR" INDICATES FEW OR NO CLOUDS BELOW 12,000 FEET WITH NO
SIGNIFICANT WEATHER AND/OR OBSTRUCTIONS TO VISIBILITY.

* THESE STATIONS ARE NOT UNDER NWS QUALITY CONTROL. THEY ALSO MAY NOT
  REPORT WEATHER SUCH AS PRECIPITATION OR FOG.

ILZ005-006-012>014-019>023-200800-
NORTHEAST ILLINOIS

CITY           SKY/WX    TMP DP  RH WIND       PRES   REMARKS
OHARE            N/A     52  39  61 S6        30.14S
MIDWAY           N/A     57  37  47 S6        30.15S
AURORA           N/A     51  40  65 SE3       30.15R
LANSING*         N/A     52  40  64 S3        30.17S
JOLIET*          N/A     50  45  83 SE3       30.15F
WAUKEGAN         N/A     51  37  58 S5        30.13F
DUPAGE AIRPORT   N/A     50  40  68 S3        30.14S
WHEELING         N/A     50  42  74 CALM      30.15F
KANKAKEE*        N/A     50  48  91 SE5       30.18R
MORRIS*          N/A     54  45  70 CALM      30.14S
LEWIS AIRPORT*   N/A     51  43  73 S7        30.15S
NORTHERLY ISL    N/A     59  37  44 S7          N/A
$$

WIZ051-052-058>065-066-070>072-200800-
SOUTHEAST WISCONSIN

CITY           SKY/WX    TMP DP  RH WIND       PRES   REMARKS
MILWAUKEE        N/A     55  31  39 S8        30.12F
KENOSHA*         N/A     53  35  50 S7        30.14S
RACINE*          N/A     56  31  38 S7        30.14F
BURLINGTON       N/A     43  39  87 CALM      30.13S
WAUKESHA         N/A     50  28  43 S6        30.13S
WEST BEND        N/A     54  28  37 S6        30.11S
$$

INZ001>003-010>013-019-020-200800-
NORTHWEST INDIANA

CITY           SKY/WX    TMP DP  RH WIND       PRES   REMARKS
GARY*            N/A     56  37  49 S6        30.17S
MICHIGAN CITY* NOT AVBL
RENSSELAER*    NOT AVBL
VALPARAISO       N/A     50  38  63 E3        30.19S
$$

LMZ740>746-200800-
SOUTHERN LAKE MICHIGAN

STATION/POSITION TIME  SKY/WX   TEMP WIND        PRES    VSBY
                                AIR  DIR/SP/G
                 (UTC)          (F)  (DEG/KT/KT) (MB)    (MI)
HARRISON CRIB    0640            61  180/ 11/ 12   N/A
BURNHAM HARBOR   0700            60  190/  6/ 11   N/A
CALUMET HARBOR   0648                180/  5/  8 1020.4S
BURNS HARBOR     0640            61  160/ 10/ 16 1021.7S
MICHIGAN CITY    0640            57  140/ 11/ 11   N/A
$$

ABBREVIATIONS USED IN REMARKS
   TC - TEMPERATURE IN CELSIUS
  WCI - WIND CHILL INDEX
   HX - HEAT INDEX
  VSB - VISIBILITY
$$




USA.gov is the U.S. government's official web portal to all federal, state and local government web resources and services.